S-NET B

Last updated on Sun Jun 21 2026 00:03:22 GMT+0000 (Coordinated Universal Time)

1 43187U 18014H 26171.44227345 .00003824 00000+0 19866-3 0 9994 2 43187 97.5362 76.1989 0009101 14.9277 345.2223 15.16668142459254
UTC large
Height (km)
Speed (km/s)
/
Latitude / Longitude
Inclination (degrees)
Orbital Period (minutes)
Azimuth
Elevation
Range (km)
Doppler Factor

Next 0 passes for location: London (51.5072 / 0.1276)

No passes found over London.
S-NET B